Starlink 35064

operational
NORAD ID: 65531 Int'l Des: 2025-200 Owner: SPXS Country: US Constellation: starlink
LEOCIRCULARRETROGRADE

Über Starlink 35064

Beschreibung wird geladen...

Live-Position

3D-Globus wird geladen...

Nächste Überflüge

Höhenverlauf

Altitude vs Time

uPlot chart will show altitude changes over time

Zweizeiliger Elementsatz

1 65531U 25200M 25350.77294884 .00002961 00000-0 20930-3 0 9998
2 65531 97.6044 58.0531 0001715 85.4196 274.7227 15.05655571 16650
Epoch: 16. Dez. 2025 • Age: 12 hours

Aktueller Status

Höhe 561.1 km
Geschwindigkeit 7.58 km/s
Subsatellitenpunkt -28.88°S, 48.59°E
Startdatum 6. Sept. 2025
Alter 0.2 years
Typ internet

Technische Details

Klassifizierung Payload
Masse 575.00 kg
Trockenmasse 530.00 kg
Gesamtmasse 575.00 kg
Länge 0.30 m
Durchmesser 4.10 m
Spannweite 29.00 m
Form Box + pan
Hersteller SPXS
Bus-Typ Starlink V2MO
Phasenstatus In Orbit
Besitzer/Staat SPXS/US

Große Konstellationen

Loading constellations...